Wind_Speed
61 62 62 63 64 65 65 66 67 68 69 69 70 71 71 72 73 74 74 75 76 77 78 78 79 79 79 80 80 80 81 81 82 82 83 83 83 83 83 84 84 84 84 84 84 85 85 85 85 85 86 86 86 86 87 87 87 87 87 87 87 87 87 87 87 87 87 87 87 87 87 87 87 86 86 86 86 86 86 86 86 85 85 84 84 83
63 64 65 65 66 67 68 68 69 70 71 72 72 73 73 74 75 76 76 77 78 78 79 80 80 80 81 81 81 82 82 83 83 84 84 84 85 85 85 86 86 86 86 86 86 87 87 87 87 87 88 88 88 88 89 89 89 89 89 89 89 89 89 89 89 89 88 88 88 88 88 87 87 87 87 87 86 86 86 85 85 84 83 83 82 81
65 66 67 68 68 69 70 71 71 72 73 74 74 75 75 76 77 77 78 78 79 79 80 80 81 81 82 82 82 82 83 84 84 85 85 86 86 87 87 88 88 88 88 89 89 89 89 89 89 89 90 90 90 90 91 91 91 91 91 91 91 91 90 90 90 89 89 88 88 87 87 87 86 86 85 85 84 84 83 83 82 82 81 80 79 79
67 68 69 70 70 71 72 72 73 74 75 75 76 77 77 78 78 78 79 79 79 80 81 81 81 82 82 83 83 83 84 85 85 86 87 87 88 89 89 90 90 91 91 91 91 91 91 91 91 92 92 92 92 92 92 93 93 92 92 92 91 91 90 89 89 88 87 87 86 85 85 84 83 83 82 81 81 80 79 79 78 77 77 76 76 75
69 70 71 72 72 73 74 75 75 76 77 77 78 78 78 79 79 79 80 80 80 80 81 81 82 82 83 83 84 84 85 86 87 87 88 89 90 90 91 92 92 93 93 93 93 93 93 93 93 94 94 94 94 94 93 93 93 92 91 90 89 88 88 87 86 85 84 83 83 82 81 80 79 79 78 77 76 75 75 74 73 73 72 71 71 70
71 72 73 74 74 75 76 76 77 78 78 79 79 79 80 80 80 80 80 81 81 81 81 82 82 83 83 84 85 86 86 87 88 89 90 91 92 92 93 94 94 95 95 95 95 95 95 95 95 95 95 94 94 93 93 92 91 89 88 87 86 85 83 82 81 80 79 79 78 77 76 75 74 74 73 72 71 70 69 69 68 67 66 66 65 64
74 74 75 76 77 77 78 78 79 79 80 80 81 81 81 81 81 81 81 81 82 82 82 83 83 84 84 85 86 87 88 89 90 91 92 93 93 94 95 95 96 96 97 97 97 97 97 96 96 95 94 93 92 91 89 88 87 85 83 82 81 79 78 77 76 75 74 73 72 71 70 70 69 68 67 66 66 65 64 63 62 61 60 60 59 58
76 76 77 77 78 79 79 80 80 80 80 81 81 82 82 82 82 82 82 82 82 83 83 84 85 85 86 87 88 89 90 91 92 93 94 95 95 96 96 97 97 97 98 98 97 97 96 96 95 93 92 90 88 86 85 83 81 79 77 76 74 73 72 71 70 69 68 67 66 65 64 64 63 62 61 61 60 59 58 57 56 56 55 54 53 52
77 78 79 79 79 79 80 81 81 81 81 81 81 82 82 82 83 83 83 83 83 84 84 85 86 87 88 89 90 91 92 93 94 95 96 96 97 97 98 98 98 98 97 97 96 95 94 93 91 89 87 85 83 81 78 76 74 72 70 69 68 67 66 65 64 63 62 61 60 59 58 58 57 56 55 55 54 53 53 52 51 50 49 48 47 46
78 79 79 80 80 80 80 80 81 81 81 81 81 82 82 82 83 84 84 84 85 85 86 87 88 90 91 91 92 92 93 94 95 96 97 97 98 98 98 97 97 96 95 94 92 90 88 87 85 83 81 79 76 74 72 69 67 65 63 62 61 60 59 59 58 57 56 55 55 54 53 52 52 51 50 50 49 48 47 47 46 45 44 43 43 43
80 80 80 80 81 81 80 80 80 81 81 81 82 83 83 84 84 84 85 86 87 88 88 89 90 91 92 93 94 95 95 95 96 97 97 97 97 97 96 95 94 92 90 88 85 83 81 79 78 76 74 72 70 67 65 62 60 58 57 56 55 54 53 53 52 52 51 50 50 49 48 48 47 46 46 45 45 44 43 43 42 41 41 40 40 40
80 80 81 81 81 81 80 80 81 81 81 82 82 83 85 86 87 87 87 89 89 90 90 91 92 93 94 95 96 96 97 96 96 96 96 95 95 93 92 90 88 85 83 80 78 76 74 72 70 68 67 65 63 60 58 56 54 52 51 50 49 49 48 48 48 47 47 46 46 45 44 44 43 43 42 42 41 41 40 40 39 39 38 38 38 38
81 81 81 81 81 81 80 81 81 82 83 83 84 85 86 88 89 90 90 91 92 92 93 93 94 95 95 96 96 97 97 97 96 95 93 91 90 88 85 83 80 78 75 73 71 69 67 65 63 61 60 58 56 54 52 50 48 47 46 45 45 45 44 44 44 44 43 43 42 42 41 41 41 40 40 40 39 39 39 38 38 37 37 37 36 36
81 82 81 81 81 81 81 81 82 83 84 85 86 87 88 89 91 91 92 93 94 95 95 95 95 96 96 96 96 96 95 94 93 91 88 85 83 80 77 75 72 70 68 66 64 62 60 58 56 55 54 52 51 49 47 45 44 43 42 41 41 41 41 41 41 41 41 40 40 40 39 39 39 39 39 38 38 38 37 37 37 36 36 35 35 34
82 82 81 81 81 81 82 82 83 84 86 87 88 89 90 91 92 93 94 95 96 97 97 97 97 96 96 95 94 93 91 89 87 84 81 78 75 72 69 66 64 63 61 58 56 55 53 51 50 49 48 47 46 45 43 41 40 39 39 38 38 38 38 38 38 38 38 38 38 38 38 38 38 38 38 38 38 37 37 36 36 35 35 34 33 33
82 82 82 82 82 82 83 83 84 86 87 89 90 91 92 93 94 95 95 96 97 97 97 97 96 95 94 92 90 88 85 83 80 77 73 70 67 64 60 58 57 56 54 51 50 48 47 46 45 44 44 43 42 41 40 38 37 36 36 36 36 36 35 36 36 36 37 37 37 37 37 37 37 37 37 37 37 37 36 36 35 34 34 33 32 32
83 83 83 83 83 84 85 85 86 87 88 90 91 92 93 93 94 95 96 96 97 97 96 95 93 91 89 87 85 82 78 74 72 69 66 62 59 56 52 50 49 49 47 45 44 42 41 41 40 40 40 39 39 38 37 36 35 34 34 33 33 33 33 33 34 34 35 36 36 36 37 37 37 37 37 37 37 36 36 35 34 34 33 32 32 32
83 84 84 84 85 86 86 87 88 89 90 91 92 93 94 94 95 95 95 95 95 94 93 91 89 86 83 80 78 75 71 66 63 62 59 55 52 48 45 43 43 42 41 40 38 37 37 37 37 37 37 36 36 35 35 35 34 34 33 32 32 31 31 32 32 33 34 34 35 35 36 36 36 36 36 36 36 36 35 34 34 33 33 32 32 32
85 85 85 86 86 87 88 88 89 90 91 93 94 94 94 95 95 94 94 93 91 89 87 85 83 80 77 73 70 66 63 59 56 54 51 48 45 42 39 38 38 37 36 35 34 34 34 34 34 34 34 34 34 33 33 33 33 33 33 32 30 30 30 30 31 31 32 33 34 34 35 35 36 36 36 35 35 35 34 34 34 33 33 33 33 32
86 87 87 87 88 88 89 90 91 91 92 93 94 94 94 94 93 91 90 88 86 84 81 78 76 73 70 66 62 59 55 51 49 46 44 42 39 36 34 33 33 33 33 32 31 31 31 32 32 33 33 33 33 32 32 31 31 31 30 30 29 29 29 29 29 30 31 32 33 34 34 35 35 35 35 35 34 34 34 34 33 33 33 33 33 33
88 88 89 89 89 89 90 91 92 92 93 93 93 93 92 90 89 87 85 82 80 77 75 72 69 67 63 59 55 51 47 43 41 40 38 36 33 31 29 29 30 30 30 29 28 28 29 30 30 31 31 32 32 32 31 31 30 29 29 28 28 28 28 28 28 29 29 30 31 32 33 34 34 34 34 34 34 34 33 33 33 34 34 34 34 33
88 89 90 90 90 91 91 92 92 93 93 92 90 89 87 85 83 81 79 76 73 71 68 66 63 60 56 52 47 42 38 36 35 35 34 32 29 27 25 26 27 27 27 26 26 26 27 28 29 30 30 31 32 31 31 30 30 29 28 28 28 28 28 27 27 27 28 29 30 31 32 33 33 34 34 33 33 33 33 33 34 34 34 34 34 34
89 90 90 91 92 92 92 92 92 92 91 88 86 84 82 79 77 74 72 70 67 64 62 59 56 53 49 44 40 35 31 30 30 31 32 30 27 24 23 23 24 25 24 24 24 25 25 26 27 29 30 31 31 32 31 31 30 29 29 28 28 28 27 27 27 26 27 27 28 29 30 32 32 33 33 33 33 33 33 34 34 34 35 35 35 34
90 91 91 92 92 92 92 92 90 89 87 84 81 79 76 73 71 68 66 63 61 58 56 53 50 46 42 38 34 30 27 26 27 29 29 28 25 22 21 22 23 23 22 22 23 24 24 25 26 28 29 30 31 32 32 31 30 30 29 28 28 27 27 27 26 26 26 26 27 28 29 30 31 32 33 33 33 33 34 34 34 35 35 35 35 35
91 91 92 93 92 92 91 89 87 84 81 78 75 72 70 68 65 63 60 57 55 52 50 47 43 39 36 32 29 26 24 23 25 27 28 27 24 21 19 20 22 22 21 21 22 23 24 24 25 27 29 30 31 32 32 32 31 30 29 29 28 27 27 27 26 26 26 25 26 26 27 29 30 31 32 33 33 33 34 34 35 35 35 36 35 35
91 92 93 92 91 90 88 85 82 79 75 71 68 66 64 61 59 57 54 51 48 46 44 41 37 33 30 27 25 23 22 22 23 25 27 26 22 19 18 20 21 21 21 21 21 22 23 24 25 26 28 29 31 32 32 32 32 31 30 29 28 27 27 26 26 25 25 25 25 25 26 27 28 30 31 32 32 33 33 34 35 35 35 36 36 35
92 92 92 90 88 86 83 80 76 72 69 65 62 59 57 55 53 51 48 45 42 40 38 35 32 28 25 23 22 21 21 21 23 24 25 24 22 19 18 20 21 21 21 21 21 22 23 23 24 26 27 29 30 31 32 32 32 32 31 29 28 27 26 26 25 25 25 24 24 24 25 26 27 28 29 30 31 32 32 33 34 35 35 35 35 35
91 90 89 86 84 80 77 73 69 66 62 59 56 54 52 50 48 46 43 40 37 35 32 30 28 26 23 21 20 20 20 22 23 24 23 23 21 20 19 20 21 21 21 21 21 21 22 23 24 25 26 28 29 30 31 31 31 31 30 29 28 27 26 25 25 25 24 24 24 24 24 24 25 26 27 28 29 30 31 32 33 34 34 35 35 35
89 87 84 81 77 74 70 67 63 60 57 54 51 49 47 45 43 41 39 36 33 30 28 27 26 25 24 22 21 20 21 22 23 24 23 22 21 21 20 21 22 22 21 21 20 21 21 22 24 24 25 26 27 28 29 29 30 30 29 28 27 26 25 25 25 24 24 24 24 24 24 24 24 25 26 26 27 28 29 30 31 32 33 33 34 33
84 81 78 74 71 68 64 61 58 55 51 48 46 43 41 39 38 36 35 32 30 29 27 26 25 25 24 23 22 21 22 23 24 24 23 23 22 21 21 22 22 22 22 21 20 20 20 21 22 23 24 24 25 26 26 27 28 28 28 27 27 26 26 25 25 24 24 24 24 24 24 24 24 24 25 25 26 27 28 29 30 30 31 32 32 32
79 75 71 68 65 62 59 56 53 50 46 43 40 38 35 34 33 33 32 31 30 29 28 27 26 26 25 25 24 24 23 23 24 24 24 23 23 22 22 22 22 22 22 21 21 20 19 20 21 23 23 24 24 24 25 25 26 26 26 26 26 26 26 25 25 24 24 24 24 24 24 24 24 24 25 25 26 26 27 28 28 29 30 30 30 31
73 69 65 62 60 57 54 51 48 45 42 38 35 33 31 29 29 29 29 29 29 29 28 28 27 27 26 26 26 25 25 24 24 24 24 23 22 22 22 22 22 22 21 21 21 20 19 19 20 22 23 23 24 24 24 24 25 25 25 25 25 25 25 25 24 24 24 23 23 23 23 23 23 24 24 25 25 26 26 27 28 28 29 29 29 29
67 64 61 58 55 53 50 46 43 40 37 33 31 29 27 27 26 27 28 28 29 29 29 28 28 27 27 26 26 26 25 25 24 24 23 22 21 21 21 21 21 21 21 21 20 20 20 20 20 21 22 23 24 24 24 24 24 24 24 24 24 24 24 24 24 23 23 23 23 23 22 22 22 23 23 23 24 25 26 26 27 27 28 28 28 29
62 59 57 54 51 48 45 42 38 35 32 29 27 26 26 25 25 26 27 27 28 28 29 28 28 28 27 27 26 25 25 24 23 22 22 21 20 20 20 20 20 20 20 20 21 21 21 21 21 21 22 23 24 24 25 24 24 24 24 24 24 24 24 24 23 23 23 23 22 22 22 22 21 21 21 22 22 23 24 25 25 26 27 27 27 27
58 55 53 50 47 43 40 37 33 30 28 26 25 25 25 25 25 26 27 27 28 28 28 28 28 28 27 26 25 24 23 23 22 21 21 20 19 19 19 20 20 20 20 21 21 21 22 22 22 22 23 23 24 25 25 25 25 25 25 25 25 24 24 24 24 24 24 23 23 23 22 22 21 21 21 20 21 21 22 22 23 24 25 25 26 26
54 52 49 45 42 38 35 32 29 27 25 24 24 24 24 25 25 26 27 27 28 28 28 28 28 27 26 25 23 22 21 21 20 20 19 19 19 19 19 20 20 21 21 22 22 22 23 23 23 23 24 24 25 25 26 26 26 26 26 26 26 25 25 25 25 25 25 25 24 24 24 23 22 22 21 20 20 20 20 21 21 22 23 23 24 24
51 48 44 41 37 34 31 28 25 24 23 23 23 24 24 25 26 26 27 27 28 28 28 27 26 25 24 22 21 20 19 19 19 19 19 19 20 20 21 21 22 22 23 23 23 23 24 24 24 24 25 25 26 26 26 27 27 27 27 27 27 27 27 26 26 26 26 26 26 25 25 24 24 23 22 21 21 20 20 20 20 20 21 21 22 23
47 43 39 36 32 29 27 25 23 23 23 23 23 24 24 25 26 27 27 27 27 27 26 25 24 23 22 21 20 19 19 19 19 19 20 21 21 22 22 23 23 24 24 24 24 24 24 24 24 25 25 26 26 26 27 27 27 28 28 28 28 28 28 28 28 28 28 27 27 27 26 25 25 24 23 22 22 21 20 20 20 20 20 21 21 22
42 38 34 31 28 26 24 23 22 22 23 23 23 24 25 25 26 27 27 27 26 25 24 23 22 21 20 20 19 19 19 20 20 21 22 23 23 24 24 24 25 25 25 25 25 25 25 25 25 25 25 26 26 27 27 27 27 28 28 28 29 29 29 29 28 28 28 28 28 27 27 26 25 25 24 23 22 22 21 20 20 20 20 20 21 21
36 33 30 27 25 23 23 22 22 22 23 23 24 24 25 26 26 26 26 25 24 23 22 21 20 20 20 20 20 21 21 22 22 23 23 24 24 25 25 25 26 26 26 26 26 26 26 26 26 26 26 26 27 27 27 27 28 28 28 29 29 29 29 29 29 29 29 28 28 28 27 27 26 25 25 24 23 22 21 21 20 20 20 20 21 21
31 29 26 24 23 22 22 22 22 23 23 24 24 25 25 26 26 25 24 23 22 21 20 20 20 20 21 21 22 22 23 23 23 24 24 25 25 26 26 26 26 27 27 27 27 27 27 27 27 27 27 27 28 28 28 28 28 28 29 29 30 30 30 29 29 29 29 29 28 28 28 27 27 26 25 24 23 22 21 21 20 20 20 20 21 21
27 25 24 23 22 22 22 22 23 23 24 24 25 25 25 25 24 23 22 21 20 20 20 20 20 21 22 22 23 23 23 23 23 24 24 25 25 26 26 26 26 26 26 26 26 26 26 27 27 27 27 27 28 28 28 29 29 29 30 30 30 30 30 30 30 29 29 29 29 29 28 28 27 26 25 25 24 22 21 21 20 20 20 20 20 21
24 23 22 22 22 22 23 23 23 24 24 25 25 25 24 23 22 21 20 20 19 19 20 20 21 22 22 23 23 23 23 23 23 24 24 24 24 25 24 24 24 24 24 23 24 24 25 25 26 26 26 27 27 27 28 28 29 30 30 31 31 31 31 31 31 31 30 30 29 29 29 28 28 27 26 25 24 23 22 21 20 19 19 20 20 20
22 22 22 22 22 23 23 23 24 24 25 25 24 24 23 22 21 20 19 19 19 20 20 21 22 22 23 23 23 23 23 23 23 23 23 22 22 22 21 21 21 21 21 21 22 22 23 24 25 25 26 26 26 26 27 28 28 29 30 31 31 31 32 32 32 32 31 31 31 30 30 29 28 27 26 25 24 23 22 21 20 19 19 19 19 20
21 21 21 22 22 23 23 24 24 24 24 24 23 22 22 21 20 19 19 19 19 20 21 21 22 22 22 23 23 23 23 22 21 21 20 20 19 19 19 19 19 19 20 20 21 21 22 23 24 24 25 25 25 26 26 27 27 28 29 30 31 31 32 32 33 33 33 32 32 32 31 30 29 28 27 26 25 24 22 21 20 19 18 18 18 19
21 21 21 22 22 23 23 24 24 24 23 23 22 21 20 19 19 18 19 19 20 20 21 21 22 22 22 22 22 22 21 20 19 18 17 17 17 17 17 18 18 18 19 20 20 21 21 22 23 23 24 24 25 25 25 26 26 27 28 29 29 30 31 32 32 33 33 33 33 33 32 31 30 29 28 27 26 24 23 22 21 20 18 18 18 18
21 21 21 22 22 23 23 23 23 23 22 22 21 20 19 19 18 18 19 19 20 20 21 21 22 22 22 21 20 19 18 17 16 16 15 15 16 16 16 17 17 18 19 19 20 21 21 22 22 22 22 23 23 23 24 24 25 25 26 27 28 28 29 30 31 32 33 33 33 34 33 32 32 31 29 28 27 25 24 23 22 20 19 18 17 17
21 21 21 22 22 23 23 23 22 22 21 20 20 19 19 18 18 18 19 19 20 20 21 21 21 21 20 19 18 16 15 15 14 14 14 15 15 16 16 16 17 18 18 19 20 21 22 22 22 22 22 21 21 21 22 22 23 23 24 24 25 26 27 27 29 30 31 32 33 33 33 33 32 32 31 29 28 27 25 24 23 21 20 18 17 16
21 21 22 22 22 23 23 22 21 21 20 19 19 18 18 18 18 18 18 19 19 20 20 20 20 19 17 16 15 14 14 13 14 14 14 15 15 15 16 16 17 17 18 19 20 20 21 22 22 22 22 21 20 20 20 20 20 21 21 22 22 23 24 25 26 27 28 29 30 31 32 32 32 32 31 30 29 28 27 25 24 22 21 19 17 16
21 21 22 22 22 22 22 21 20 20 19 18 18 18 17 17 17 17 18 18 19 19 19 18 17 16 15 13 13 12 13 13 13 14 14 15 15 16 16 16 17 18 18 19 19 20 20 20 21 21 21 21 20 19 19 19 19 19 18 19 19 20 21 22 24 25 25 26 27 28 29 30 31 31 31 31 30 29 28 27 25 24 22 20 18 17
21 22 22 22 22 22 21 20 19 19 18 17 17 17 17 17 17 17 17 17 18 18 17 16 15 13 12 12 11 12 12 13 13 14 14 15 15 16 16 17 17 18 18 19 19 19 19 19 19 19 19 20 20 19 18 18 17 17 17 17 17 17 18 19 20 22 22 23 24 25 26 27 28 29 30 30 30 30 29 28 26 25 23 21 19 18
Wind_Direction
300 300 300 300 299 299 299 299 298 298 298 298 297 297 297 296 296 295 295 294 294 293 293 293 292 292 291 290 290 289 289 288 287 287 286 286 285 285 284 284 283 283 283 282 282 282 282 282 281 281 281 281 281 280 280 280 279 279 278 278 277 277 276 276 275 275 275 274 274 274 274 274 273 273 273 273 273 273 272 272 272 272 271 271 271 270
300 300 300 300 300 299 299 299 299 298 298 298 297 297 296 296 296 295 295 294 294 293 293 292 292 292 291 290 290 289 289 288 288 287 287 286 286 285 285 284 284 284 283 283 283 283 283 283 283 282 282 282 282 282 281 281 281 280 280 280 279 279 278 278 277 277 276 276 275 275 275 275 274 274 274 273 273 273 273 272 272 272 271 271 270 270
300 300 300 300 300 300 299 299 299 298 298 298 297 297 296 296 295 295 294 294 294 293 293 292 292 291 291 290 290 289 289 288 288 287 287 287 286 286 286 285 285 285 284 284 284 284 284 284 284 284 283 283 283 283 283 283 282 282 282 281 281 280 280 279 278 278 277 277 276 276 275 275 274 274 274 273 273 272 272 272 271 271 270 270 269 269
301 300 300 300 300 300 299 299 299 298 298 297 297 297 296 296 295 295 294 294 293 293 292 292 292 291 291 290 290 289 289 288 288 288 288 287 287 287 287 286 286 286 286 285 285 285 285 285 285 285 285 285 284 284 284 284 284 283 283 282 282 281 280 280 279 278 277 277 276 275 275 274 274 273 273 272 272 271 271 270 270 269 269 269 268 268
301 301 301 300 300 300 300 299 299 298 298 297 297 296 296 296 295 295 294 294 293 292 292 292 291 291 290 290 290 289 289 289 288 288 288 288 288 288 287 287 287 287 287 287 286 286 286 286 286 286 285 285 285 285 285 285 284 284 283 282 282 281 280 279 278 277 277 276 275 275 274 273 272 272 271 271 270 269 269 268 268 268 267 267 266 266
301 301 301 301 300 300 300 300 299 299 298 297 297 296 296 295 295 294 294 293 293 292 292 291 291 291 290 290 290 289 289 289 289 289 289 289 288 288 288 288 288 288 288 288 287 287 287 287 286 286 286 286 285 285 285 284 284 283 282 282 281 280 279 278 277 276 276 275 274 273 273 272 271 270 270 269 268 267 267 266 266 265 265 265 264 264
302 302 301 301 301 301 300 300 299 299 298 298 297 297 296 295 295 294 294 293 293 292 292 291 291 290 290 290 290 290 290 290 290 290 289 289 289 289 289 289 289 289 289 289 288 288 288 287 287 286 286 285 285 284 284 283 283 282 281 280 279 278 277 277 276 275 274 274 273 272 271 270 269 269 268 267 266 266 265 264 264 263 262 262 262 261
302 302 302 301 301 301 301 300 300 299 298 298 297 297 296 296 295 294 294 293 293 292 292 292 291 291 291 291 291 290 291 290 290 290 290 290 290 290 290 290 290 290 289 289 289 288 288 287 287 286 285 285 284 283 282 282 281 280 279 278 277 277 276 275 274 273 273 272 271 270 269 268 268 267 266 265 264 263 263 262 261 260 260 259 259 259
302 302 302 301 301 301 301 300 300 299 298 298 297 297 296 296 295 294 294 293 293 293 292 292 292 291 291 291 291 291 291 291 291 291 291 291 291 291 291 290 290 290 289 289 289 288 287 287 286 285 284 284 283 282 281 280 279 278 277 276 275 275 274 273 272 271 270 270 269 268 267 266 265 264 264 263 262 261 260 260 259 258 257 257 256 256
302 302 302 301 301 301 300 300 299 299 298 297 297 296 296 295 295 294 294 294 293 293 293 293 293 292 292 292 292 292 292 292 292 292 292 292 291 291 291 291 290 290 289 289 288 287 287 286 285 284 283 283 282 281 279 278 277 276 275 274 273 272 271 270 270 269 268 267 266 265 265 264 263 262 262 261 260 259 258 257 256 256 255 255 255 255
302 302 301 301 301 301 300 300 299 298 298 297 297 296 296 295 295 295 294 294 294 293 293 293 293 293 293 293 293 293 293 293 292 292 292 292 292 291 291 290 290 289 289 288 287 287 286 285 284 283 282 281 280 279 278 277 276 274 273 271 270 269 268 267 266 266 265 265 264 263 262 262 261 260 260 259 258 257 256 255 254 254 254 253 254 254
302 302 301 301 301 300 300 300 299 298 298 297 297 296 296 296 296 295 295 295 295 294 294 294 294 294 294 294 294 294 294 294 293 293 292 292 292 291 291 290 290 289 288 287 286 285 284 284 283 282 281 280 279 278 277 275 273 272 270 268 267 266 265 264 263 263 262 262 262 261 261 260 259 259 258 257 256 255 254 254 253 253 253 253 253 253
302 301 301 301 301 300 300 299 299 298 298 298 297 297 297 297 297 297 297 296 296 296 296 296 295 295 296 296 296 295 295 294 294 293 293 292 292 291 290 290 289 288 287 286 285 284 283 282 282 281 280 279 278 277 275 273 271 269 267 265 264 262 261 261 260 260 260 260 260 259 259 259 258 257 257 256 255 254 254 253 253 253 252 252 251 251
302 301 301 301 301 300 300 300 299 299 299 298 298 298 298 298 298 298 298 298 297 297 297 297 297 297 297 297 297 296 296 295 294 294 293 293 292 291 290 290 288 287 286 286 285 284 283 281 280 279 278 277 276 275 273 271 269 267 264 263 261 260 259 258 258 258 258 258 258 258 258 257 257 256 256 255 254 254 253 253 252 252 251 250 249 247
302 301 301 301 301 301 300 300 300 300 299 299 299 299 299 299 299 299 299 299 299 299 299 299 299 298 298 298 297 297 296 295 295 294 294 293 292 291 291 289 288 287 286 285 284 283 282 280 278 277 276 275 274 273 271 269 267 265 263 261 259 258 257 256 256 257 257 257 257 256 256 256 256 255 255 254 254 253 253 252 251 250 249 247 246 244
302 301 301 301 301 301 301 301 300 300 300 300 300 300 300 300 300 300 300 300 300 300 300 300 299 299 299 298 297 297 296 296 295 294 294 293 292 291 290 289 287 285 284 283 282 281 280 279 277 275 274 273 272 271 269 268 266 263 261 259 258 256 255 255 255 255 255 256 255 255 255 255 255 254 254 254 253 253 252 251 250 248 246 244 242 240
302 302 301 301 301 301 301 301 301 301 301 301 301 301 301 301 301 301 301 301 301 300 300 300 300 299 299 299 298 297 297 296 296 295 294 294 293 291 290 287 285 284 283 282 281 280 278 276 275 273 272 271 270 269 268 266 265 263 261 259 257 256 255 254 254 254 254 254 254 254 254 254 254 253 253 253 252 251 250 249 247 246 243 241 239 238
302 302 302 302 302 302 302 302 302 302 302 302 302 302 302 302 302 302 301 301 301 301 301 300 300 300 299 299 299 298 298 297 296 296 295 294 293 291 289 286 284 282 281 280 279 277 275 273 272 271 270 269 268 267 266 265 264 262 261 259 257 256 255 254 253 253 253 254 254 253 253 253 253 252 252 251 251 250 248 247 245 243 241 239 238 238
302 302 302 303 303 303 303 303 303 303 303 303 303 303 303 302 302 302 302 301 301 301 301 301 300 300 300 300 299 299 298 297 297 296 295 294 292 291 288 285 283 281 280 278 276 273 271 270 269 268 268 267 267 266 265 264 263 262 261 260 258 256 254 253 253 252 252 252 253 253 253 252 252 251 251 250 249 248 246 245 243 241 239 238 238 238
303 303 303 304 304 304 304 304 304 304 304 304 303 303 303 303 303 302 302 302 301 301 301 301 300 300 300 300 300 299 299 298 296 295 294 292 291 289 286 283 281 279 278 276 273 271 268 267 267 267 267 266 266 265 265 264 263 262 262 261 259 257 256 254 253 252 252 251 251 252 252 252 251 251 250 249 247 246 244 243 241 240 239 238 238 240
304 304 304 305 305 305 305 305 305 305 304 304 304 304 303 303 303 302 302 302 302 301 301 301 301 301 301 301 301 300 299 298 296 295 293 291 289 288 286 283 280 277 276 274 272 269 267 266 266 266 267 267 267 267 266 265 265 264 263 263 262 260 258 256 254 253 252 251 251 251 251 251 250 250 249 247 246 244 243 241 240 239 238 239 239 241
305 305 305 305 306 306 306 306 305 305 305 304 304 304 303 303 303 302 302 302 302 302 302 302 303 303 303 303 302 302 301 299 297 295 294 292 290 288 286 282 278 276 274 273 271 269 267 266 266 267 267 268 268 268 268 268 267 266 266 265 264 263 262 260 258 256 254 252 251 251 250 250 250 249 248 247 245 243 242 240 240 239 239 239 241 242
305 305 306 306 306 306 306 306 306 305 305 304 304 303 303 303 303 303 303 303 303 304 304 304 305 305 305 305 304 303 302 300 297 295 294 292 291 289 285 281 277 275 274 272 270 268 267 266 266 266 267 268 268 269 270 270 270 269 269 268 267 266 265 264 262 259 257 254 252 251 250 250 249 249 248 246 244 243 241 240 240 239 240 241 242 244
305 306 306 306 306 306 306 306 305 305 305 304 304 303 303 303 303 303 303 304 305 305 306 306 306 307 307 307 305 303 302 300 297 295 293 292 290 288 285 281 278 275 273 271 270 268 266 266 266 266 266 267 268 269 270 271 271 271 271 270 270 269 268 267 265 263 259 256 254 252 250 250 249 249 248 246 245 243 242 241 240 241 241 242 243 245
306 306 306 306 306 306 306 305 305 305 304 304 304 303 303 303 303 304 304 305 306 306 307 307 308 309 309 307 305 303 302 299 296 294 292 291 289 288 285 282 279 276 274 271 269 268 267 266 265 265 266 267 268 270 271 272 273 273 273 273 272 271 270 268 266 264 260 257 254 251 250 249 248 248 248 247 245 244 243 242 242 242 243 244 245 246
306 306 306 306 306 306 306 305 305 305 304 304 304 303 303 303 303 304 304 305 306 306 307 307 308 309 309 307 305 303 301 298 295 293 291 290 289 288 286 283 280 278 275 272 270 269 268 267 266 266 266 267 268 269 271 272 273 274 274 274 273 271 270 268 266 263 260 257 253 250 249 248 247 247 247 247 246 245 244 243 243 244 244 245 246 247
306 306 306 306 306 306 305 305 305 305 304 304 303 303 303 303 303 303 304 305 306 306 306 307 308 309 309 307 305 303 300 297 294 292 290 290 289 289 287 284 281 279 276 274 271 270 270 269 267 266 266 266 267 268 269 270 272 273 273 273 272 271 269 266 264 262 259 256 253 250 248 247 246 246 246 246 246 245 245 244 244 245 246 247 248 249
306 306 306 306 306 306 305 305 305 305 304 304 303 302 302 302 302 303 304 305 305 306 306 308 309 309 309 307 305 302 300 298 295 291 289 289 290 290 289 286 283 280 278 275 273 272 272 271 269 268 267 266 266 267 268 269 270 271 272 272 271 270 268 265 263 261 259 256 254 251 249 247 246 246 246 246 245 245 245 245 245 245 246 247 248 249
306 306 306 306 306 306 305 305 305 304 304 303 302 302 301 301 302 303 304 306 306 307 308 309 309 309 308 307 305 302 301 298 295 291 290 290 291 292 290 287 285 282 280 277 275 274 274 273 272 270 268 267 266 266 267 267 268 269 270 270 270 269 267 265 263 261 259 257 255 253 251 249 247 246 245 245 245 245 244 244 244 245 246 247 247 249
307 307 306 306 306 305 305 305 304 304 303 302 301 301 301 301 302 303 305 306 307 308 308 309 309 308 307 306 304 303 301 298 295 292 291 292 293 293 291 288 286 284 282 280 278 276 275 275 274 272 270 269 267 266 266 266 267 267 268 268 268 268 267 265 263 262 260 259 257 255 253 251 249 247 246 245 244 244 244 244 244 244 244 245 246 247
307 307 306 306 306 305 305 305 304 303 302 302 301 300 300 300 301 302 304 305 306 307 308 308 308 307 306 305 304 303 301 298 295 293 293 294 294 293 291 288 286 285 283 282 280 277 275 273 273 273 272 270 268 267 266 265 265 266 266 267 267 267 266 265 264 262 261 259 258 257 255 252 250 248 246 245 244 243 243 243 243 243 243 244 245 245
307 307 307 306 306 305 305 304 304 303 302 301 300 299 299 299 299 300 302 303 304 305 306 306 306 305 305 304 303 302 300 298 296 294 294 295 294 293 291 289 287 286 284 283 281 279 275 272 271 271 271 271 269 268 267 266 265 265 265 265 265 265 265 265 264 262 261 260 258 257 255 253 251 248 246 244 243 242 242 242 242 242 242 243 243 244
308 307 307 307 306 306 305 304 303 302 301 300 299 298 298 297 298 298 300 301 302 303 304 304 304 304 303 302 302 301 300 298 297 296 296 296 295 293 291 289 288 287 286 284 283 281 278 274 271 270 270 270 270 269 268 267 266 266 265 265 264 264 264 264 263 262 261 260 259 257 256 254 251 249 247 245 243 242 241 241 241 241 241 242 242 243
308 308 307 307 306 305 304 303 302 301 300 299 298 298 297 298 298 299 299 300 301 302 302 303 303 302 302 301 301 300 299 299 298 298 297 297 295 294 292 290 289 288 287 286 284 282 280 277 274 272 270 270 270 270 269 268 267 267 266 265 264 264 263 263 263 262 261 260 259 258 256 254 252 250 247 245 243 242 241 240 240 240 241 241 242 242
308 308 307 306 305 304 303 302 300 299 298 298 297 297 298 298 299 299 300 300 301 301 301 301 301 301 301 300 300 300 299 299 299 299 299 298 296 295 293 291 290 288 287 285 284 282 281 279 277 274 272 271 270 270 270 269 268 268 267 266 265 264 263 263 262 262 261 260 259 258 257 255 254 251 249 247 244 242 241 240 240 240 240 240 241 241
308 307 307 306 304 303 302 300 299 298 297 297 297 297 298 299 300 300 300 300 300 300 301 301 301 301 301 300 300 300 300 299 300 299 299 298 297 295 292 291 289 287 285 283 281 280 278 277 276 274 273 271 270 270 270 269 269 269 268 267 266 265 264 263 263 262 262 261 260 259 258 257 255 253 251 249 246 244 242 240 239 239 239 239 240 240
307 307 306 305 303 301 300 299 298 297 296 297 297 298 299 300 300 301 301 301 301 301 301 301 301 301 301 301 301 301 301 301 300 300 299 298 296 294 292 290 288 286 284 282 280 278 276 275 273 272 271 270 269 269 268 268 268 268 268 268 267 266 265 265 264 263 262 262 261 260 259 258 257 255 253 251 248 246 243 241 239 239 238 238 238 239
307 306 305 303 302 300 299 298 297 297 297 297 298 299 300 301 301 301 301 301 301 301 302 301 301 301 301 302 302 302 301 301 301 300 299 297 296 294 292 291 289 287 285 283 281 279 277 275 274 272 271 269 268 267 267 266 266 266 266 266 266 266 265 265 264 264 263 263 262 262 261 260 259 257 255 253 251 248 245 242 240 238 237 237 237 237
305 304 303 302 301 299 298 298 297 297 298 298 299 300 301 302 302 302 302 302 302 302 302 302 301 301 301 302 302 301 301 301 301 301 300 298 297 296 294 293 291 289 288 286 285 283 281 279 277 275 273 271 269 267 266 265 265 264 264 264 264 264 264 263 263 263 263 263 263 262 262 261 260 259 257 255 252 250 246 243 241 239 237 236 236 236
304 303 302 300 299 299 298 298 298 298 299 300 301 302 302 302 302 302 302 302 302 302 301 301 301 301 301 301 301 302 302 303 303 302 301 300 298 297 296 294 293 292 291 290 288 287 285 283 281 278 276 273 271 269 267 265 264 263 262 262 261 261 261 261 261 261 261 261 262 262 262 261 261 260 258 256 254 251 248 244 241 239 237 236 236 236
303 302 300 300 299 298 298 299 299 299 300 301 302 303 303 303 302 302 302 302 302 301 301 300 300 300 301 301 302 303 303 304 303 302 301 300 298 297 296 295 294 293 293 292 291 290 288 286 284 281 279 276 274 271 269 267 265 263 261 260 260 259 259 258 258 258 258 259 259 260 260 260 260 259 258 256 254 251 248 245 242 239 237 235 235 235
302 301 300 299 299 299 299 299 300 301 301 302 303 303 303 303 302 302 301 301 300 300 300 300 300 301 301 302 303 303 304 304 303 302 300 299 298 297 296 296 295 295 295 295 294 293 291 289 287 284 282 279 276 274 271 268 266 263 261 260 258 258 257 256 256 255 255 256 256 256 257 257 257 257 256 255 254 252 249 246 243 239 237 235 234 234
301 300 300 299 300 300 300 300 301 301 302 302 303 303 303 303 302 301 300 300 299 299 299 299 300 301 302 303 304 304 304 303 302 301 300 299 298 298 298 298 298 298 298 298 297 296 294 293 290 288 285 282 280 277 274 270 267 264 262 259 257 256 255 254 253 253 253 252 253 253 253 253 254 254 254 253 253 251 249 246 243 239 236 234 233 232
300 300 299 300 300 300 300 300 301 301 302 302 303 303 303 302 301 300 299 299 298 299 299 300 301 302 303 304 304 304 304 304 303 302 301 301 301 301 302 302 302 303 303 303 302 301 300 298 295 293 290 287 284 280 277 273 270 266 263 260 257 255 253 252 251 250 250 249 249 249 250 250 250 250 250 250 250 249 248 246 243 239 235 233 231 230
300 299 299 299 299 299 299 300 300 301 302 302 303 303 302 301 300 299 299 299 299 300 301 302 303 304 304 305 305 305 305 305 305 304 304 305 305 306 307 307 308 308 308 308 307 306 305 303 301 298 295 292 289 285 281 276 272 268 265 261 258 255 253 251 250 248 247 247 246 246 246 246 247 247 247 247 247 247 246 245 243 239 235 232 229 228
300 299 299 299 299 299 299 300 300 301 302 302 303 302 302 301 300 299 300 300 301 302 303 304 304 305 305 306 306 306 306 307 308 309 309 310 311 311 312 312 313 313 313 313 312 311 310 308 306 303 301 297 294 289 284 280 275 271 267 263 260 257 254 251 249 247 246 244 244 243 243 243 243 244 244 244 244 244 244 244 243 240 236 231 227 226
300 300 300 299 299 299 299 300 301 302 302 302 302 301 301 300 300 300 301 302 303 303 304 305 306 306 306 307 308 308 310 311 313 314 314 315 315 315 316 317 317 318 318 318 317 317 315 314 312 309 307 303 299 294 289 284 279 275 270 266 263 259 256 252 249 247 245 243 242 241 241 241 241 241 241 241 241 241 241 241 241 239 236 231 227 223
301 301 301 300 300 300 300 301 301 302 302 302 301 301 300 300 301 301 302 303 303 304 305 306 307 308 309 310 311 312 314 316 317 317 317 318 318 319 320 321 322 322 323 323 323 322 321 320 318 316 313 310 305 299 294 288 284 279 274 269 265 262 258 254 251 248 245 243 241 240 239 238 238 238 238 238 238 238 238 238 238 237 235 232 228 223
302 302 301 301 301 301 301 301 302 302 302 301 301 300 300 300 301 302 303 303 304 305 306 307 308 310 312 313 315 316 318 319 320 320 320 321 323 324 325 326 327 328 328 327 327 326 325 325 323 322 319 317 312 306 300 295 289 284 279 273 268 263 259 255 252 249 246 243 241 239 237 237 236 235 235 235 235 235 235 235 235 235 234 232 229 225
302 302 301 301 301 301 301 301 301 301 301 301 300 300 300 300 301 302 303 304 305 306 308 310 312 313 315 317 318 319 320 321 321 323 324 326 328 330 331 333 333 333 332 331 330 329 328 328 327 326 324 321 318 314 309 303 298 292 286 279 273 266 261 256 252 249 246 243 240 238 236 235 234 233 233 233 232 232 232 232 232 232 232 232 230 226
303 302 302 302 302 302 301 301 301 301 300 300 300 299 300 301 301 303 304 305 307 309 311 313 315 316 318 319 320 321 322 322 324 327 330 332 334 336 337 338 337 336 335 333 331 331 330 331 331 330 328 325 323 320 317 312 306 301 295 288 280 272 265 259 254 249 245 242 239 237 235 233 232 231 231 230 230 230 229 229 229 229 230 230 229 226
Height
5590 5589 5587 5585 5583 5581 5580 5578 5576 5574 5571 5570 5568 5566 5564 5562 5560 5558 5556 5554 5551 5549 5546 5545 5543 5542 5540 5538 5536 5534 5532 5529 5527 5525 5523 5522 5520 5519 5517 5515 5514 5513 5511 5510 5509 5507 5506 5505 5503 5502 5500 5499 5498 5496 5495 5494 5493 5492 5491 5490 5490 5489 5489 5489 5489 5489 5488 5488 5488 5487 5487 5486 5486 5486 5486 5486 5486 5486 5485 5485 5486 5486 5487 5488 5488 5488
5585 5584 5582 5580 5578 5576 5574 5572 5570 5568 5566 5564 5562 5560 5558 5556 5554 5552 5550 5547 5545 5542 5540 5538 5536 5534 5532 5531 5529 5526 5524 5521 5519 5517 5515 5513 5511 5510 5508 5507 5505 5504 5503 5502 5500 5499 5497 5496 5495 5493 5492 5490 5489 5487 5486 5485 5483 5482 5481 5481 5480 5480 5479 5479 5479 5479 5479 5479 5479 5479 5478 5478 5477 5477 5478 5478 5478 5477 5477 5477 5477 5478 5478 5479 5480 5480
5581 5578 5577 5575 5573 5571 5569 5566 5564 5562 5560 5558 5555 5553 5551 5550 5547 5545 5543 5540 5538 5535 5533 5530 5528 5526 5525 5523 5521 5519 5516 5513 5511 5509 5507 5505 5503 5501 5499 5498 5496 5495 5494 5493 5491 5490 5489 5487 5486 5484 5483 5481 5480 5478 5477 5475 5474 5473 5472 5471 5470 5470 5470 5470 5470 5470 5470 5470 5470 5470 5469 5469 5469 5469 5469 5469 5469 5469 5469 5469 5469 5469 5470 5470 5471 5472
5575 5573 5571 5570 5568 5565 5563 5561 5558 5556 5554 5551 5549 5547 5545 5543 5540 5538 5536 5534 5531 5529 5526 5523 5521 5519 5517 5515 5513 5511 5508 5505 5503 5500 5498 5496 5494 5492 5490 5489 5487 5485 5484 5483 5482 5481 5480 5478 5477 5475 5474 5472 5470 5469 5467 5466 5465 5463 5462 5461 5461 5460 5460 5460 5460 5460 5460 5460 5460 5460 5460 5460 5460 5460 5460 5460 5460 5460 5461 5461 5461 5461 5461 5462 5463 5464
5570 5568 5565 5563 5562 5560 5557 5555 5552 5550 5547 5545 5542 5540 5538 5536 5533 5531 5529 5526 5524 5522 5519 5516 5514 5511 5509 5507 5505 5503 5500 5498 5495 5492 5490 5488 5486 5484 5481 5480 5478 5476 5475 5473 5472 5471 5470 5469 5468 5466 5465 5463 5461 5460 5458 5457 5455 5454 5453 5452 5451 5451 5450 5450 5450 5450 5451 5451 5451 5451 5451 5451 5451 5452 5452 5452 5452 5452 5453 5453 5454 5454 5454 5455 5455 5456
5565 5562 5559 5557 5555 5553 5551 5548 5545 5543 5540 5537 5535 5533 5531 5529 5526 5524 5522 5519 5517 5515 5512 5510 5507 5504 5502 5499 5497 5494 5492 5490 5487 5484 5482 5480 5477 5475 5473 5470 5469 5467 5465 5464 5462 5461 5460 5459 5458 5456 5455 5454 5452 5450 5449 5447 5446 5445 5443 5442 5442 5441 5441 5441 5441 5441 5442 5442 5442 5442 5443 5443 5443 5443 5444 5444 5445 5445 5445 5446 5447 5447 5448 5448 5449 5450
5558 5556 5553 5551 5549 5546 5544 5542 5539 5536 5533 5530 5527 5525 5524 5521 5519 5517 5514 5512 5509 5507 5505 5502 5500 5497 5494 5492 5489 5486 5484 5481 5479 5476 5473 5471 5469 5466 5464 5462 5460 5458 5456 5454 5452 5451 5449 5448 5447 5446 5445 5444 5443 5441 5440 5438 5437 5435 5435 5433 5433 5432 5432 5432 5433 5433 5433 5433 5434 5434 5434 5435 5435 5436 5436 5437 5437 5438 5439 5440 5440 5441 5442 5442 5443 5444
5551 5549 5547 5545 5542 5540 5537 5535 5532 5529 5526 5522 5519 5517 5515 5513 5511 5509 5507 5505 5502 5499 5497 5494 5492 5489 5486 5484 5481 5479 5475 5472 5470 5467 5464 5462 5460 5457 5455 5453 5451 5449 5446 5445 5442 5440 5439 5438 5436 5436 5435 5435 5434 5432 5431 5430 5428 5427 5426 5425 5425 5424 5424 5424 5425 5425 5425 5426 5426 5427 5427 5428 5429 5429 5430 5430 5431 5431 5433 5434 5434 5435 5436 5437 5438 5439
5545 5543 5540 5538 5536 5534 5531 5528 5524 5521 5519 5516 5512 5510 5507 5505 5503 5500 5499 5497 5495 5492 5490 5487 5484 5480 5478 5476 5474 5471 5468 5465 5461 5458 5455 5453 5450 5448 5445 5444 5441 5439 5437 5435 5433 5431 5429 5427 5426 5425 5425 5425 5424 5423 5422 5421 5420 5419 5418 5418 5417 5417 5417 5417 5417 5418 5418 5419 5420 5420 5420 5421 5422 5423 5424 5424 5425 5426 5427 5428 5429 5430 5431 5432 5433 5435
5538 5536 5534 5531 5529 5527 5525 5522 5518 5514 5511 5508 5505 5502 5500 5498 5496 5493 5490 5488 5487 5485 5483 5480 5476 5472 5470 5467 5465 5463 5460 5458 5454 5450 5446 5444 5441 5438 5435 5433 5431 5430 5427 5425 5423 5421 5419 5417 5416 5415 5415 5415 5415 5415 5414 5414 5413 5412 5411 5411 5410 5410 5410 5410 5411 5411 5412 5413 5413 5414 5415 5415 5416 5417 5418 5419 5420 5421 5422 5423 5424 5425 5427 5428 5429 5430
5531 5529 5527 5525 5522 5520 5517 5515 5512 5508 5505 5502 5498 5495 5491 5489 5488 5486 5484 5480 5478 5476 5475 5472 5468 5464 5462 5459 5456 5453 5450 5449 5445 5442 5438 5435 5432 5429 5426 5424 5421 5420 5418 5416 5414 5412 5410 5409 5407 5406 5406 5406 5407 5407 5407 5406 5406 5405 5405 5405 5405 5405 5405 5405 5405 5406 5407 5407 5408 5409 5410 5411 5412 5413 5414 5415 5415 5417 5418 5419 5420 5421 5423 5424 5425 5426
5525 5523 5520 5518 5516 5513 5511 5508 5504 5501 5498 5495 5492 5489 5485 5481 5478 5477 5475 5472 5469 5467 5466 5463 5460 5455 5453 5450 5447 5444 5440 5437 5435 5433 5430 5426 5422 5419 5417 5415 5412 5410 5409 5407 5405 5404 5402 5401 5400 5399 5399 5399 5399 5400 5400 5400 5400 5399 5399 5399 5399 5399 5400 5400 5400 5401 5402 5403 5404 5405 5405 5406 5407 5408 5410 5410 5412 5413 5414 5415 5416 5418 5419 5420 5422 5423
5518 5516 5514 5511 5509 5507 5504 5501 5497 5494 5490 5487 5485 5482 5478 5474 5470 5468 5466 5463 5460 5457 5456 5454 5451 5447 5443 5440 5438 5434 5430 5426 5424 5421 5420 5417 5413 5410 5408 5405 5404 5401 5400 5399 5398 5396 5395 5394 5393 5392 5392 5392 5393 5393 5394 5394 5394 5394 5394 5394 5395 5395 5395 5396 5397 5397 5398 5399 5400 5401 5402 5403 5404 5405 5406 5407 5408 5409 5410 5412 5413 5415 5416 5417 5418 5420
5511 5509 5506 5504 5502 5500 5497 5494 5490 5487 5483 5479 5476 5473 5470 5467 5463 5460 5457 5454 5450 5447 5445 5444 5441 5438 5435 5431 5428 5423 5419 5415 5413 5411 5410 5407 5404 5401 5399 5397 5395 5393 5392 5391 5390 5390 5389 5388 5387 5387 5386 5387 5387 5387 5388 5388 5389 5389 5390 5390 5390 5391 5392 5392 5393 5394 5395 5396 5397 5398 5399 5400 5400 5401 5403 5404 5405 5406 5407 5409 5410 5411 5412 5414 5415 5417
5504 5502 5500 5497 5495 5493 5490 5487 5484 5480 5475 5471 5468 5465 5462 5459 5455 5451 5447 5444 5441 5437 5434 5432 5430 5428 5425 5422 5418 5414 5409 5405 5403 5401 5400 5398 5395 5393 5391 5389 5387 5386 5385 5385 5384 5383 5383 5383 5382 5382 5382 5382 5382 5382 5383 5384 5384 5385 5385 5386 5387 5388 5388 5389 5390 5391 5392 5393 5394 5395 5395 5396 5397 5398 5400 5401 5402 5403 5404 5405 5407 5408 5409 5411 5412 5414
5497 5495 5493 5490 5488 5485 5483 5480 5477 5473 5469 5464 5460 5457 5454 5451 5447 5442 5438 5435 5431 5428 5425 5422 5420 5417 5415 5412 5408 5405 5401 5398 5395 5392 5391 5390 5388 5386 5385 5383 5381 5380 5380 5380 5379 5378 5378 5378 5377 5377 5377 5377 5378 5378 5379 5379 5380 5381 5382 5382 5383 5384 5385 5386 5387 5388 5389 5390 5390 5391 5392 5393 5395 5395 5396 5398 5399 5400 5401 5403 5404 5405 5406 5408 5409 5411
5490 5488 5486 5483 5481 5478 5476 5473 5470 5466 5461 5457 5453 5449 5446 5443 5439 5435 5431 5426 5422 5419 5415 5412 5410 5408 5406 5403 5399 5396 5394 5391 5388 5385 5384 5383 5382 5380 5379 5377 5375 5375 5375 5375 5375 5374 5374 5373 5373 5373 5373 5374 5374 5375 5375 5376 5376 5377 5378 5379 5380 5381 5383 5384 5385 5385 5386 5387 5388 5389 5390 5390 5391 5392 5394 5395 5396 5397 5398 5400 5401 5402 5404 5405 5406 5408
5483 5480 5479 5476 5474 5470 5468 5465 5462 5458 5454 5449 5445 5441 5438 5434 5430 5427 5423 5418 5414 5411 5407 5404 5401 5398 5396 5394 5391 5389 5387 5385 5382 5379 5378 5377 5376 5375 5374 5372 5371 5370 5370 5371 5370 5370 5370 5370 5370 5370 5370 5370 5371 5371 5372 5373 5374 5375 5375 5376 5377 5379 5380 5381 5382 5383 5384 5384 5385 5386 5387 5388 5389 5390 5391 5392 5393 5394 5395 5397 5398 5400 5401 5403 5404 5405
5475 5473 5471 5469 5466 5463 5460 5456 5454 5450 5446 5440 5436 5432 5429 5425 5422 5418 5414 5410 5406 5403 5400 5396 5394 5391 5390 5388 5385 5382 5380 5378 5375 5373 5372 5371 5370 5370 5370 5368 5367 5366 5367 5367 5367 5367 5366 5366 5366 5366 5367 5367 5368 5368 5369 5370 5371 5371 5373 5374 5375 5376 5377 5378 5379 5380 5381 5382 5382 5383 5384 5385 5386 5387 5388 5389 5390 5392 5393 5394 5395 5397 5398 5400 5401 5403
5468 5465 5463 5461 5459 5456 5452 5448 5445 5441 5437 5432 5427 5424 5420 5417 5414 5410 5406 5402 5399 5396 5393 5391 5388 5386 5384 5381 5379 5376 5374 5372 5370 5368 5367 5367 5367 5366 5366 5365 5364 5364 5364 5364 5364 5364 5364 5363 5364 5364 5364 5365 5365 5365 5366 5367 5368 5369 5370 5371 5372 5373 5374 5375 5376 5377 5378 5379 5380 5380 5381 5382 5383 5384 5385 5386 5388 5389 5390 5392 5393 5394 5396 5397 5399 5400
5460 5457 5454 5452 5450 5448 5445 5441 5437 5433 5428 5423 5419 5415 5411 5408 5405 5401 5398 5395 5393 5391 5388 5385 5382 5380 5377 5375 5373 5371 5370 5368 5366 5364 5363 5363 5363 5364 5364 5363 5361 5361 5361 5361 5362 5362 5361 5361 5361 5362 5362 5362 5363 5363 5364 5364 5365 5366 5367 5368 5369 5370 5371 5372 5374 5375 5375 5376 5377 5378 5379 5380 5380 5382 5383 5384 5385 5386 5388 5389 5390 5392 5393 5395 5396 5398
5453 5450 5447 5444 5441 5439 5436 5433 5429 5425 5420 5415 5411 5407 5404 5400 5397 5394 5392 5390 5387 5384 5381 5378 5375 5374 5372 5370 5368 5367 5366 5364 5362 5360 5359 5359 5360 5361 5361 5360 5359 5359 5359 5360 5360 5360 5360 5360 5360 5360 5360 5360 5361 5361 5361 5362 5363 5364 5365 5365 5367 5368 5369 5370 5371 5372 5373 5374 5375 5375 5376 5377 5378 5379 5380 5381 5383 5384 5385 5386 5388 5389 5390 5392 5394 5395
5446 5443 5440 5437 5434 5431 5428 5425 5421 5417 5413 5408 5405 5400 5397 5395 5393 5390 5387 5383 5380 5377 5375 5373 5371 5369 5368 5366 5365 5364 5363 5362 5360 5358 5357 5356 5357 5358 5359 5358 5357 5357 5357 5358 5358 5358 5358 5358 5358 5358 5358 5358 5359 5359 5359 5360 5360 5361 5362 5363 5364 5365 5366 5367 5368 5369 5370 5371 5372 5373 5374 5375 5376 5377 5378 5379 5380 5381 5383 5384 5385 5387 5388 5390 5391 5392
5440 5437 5434 5430 5427 5424 5420 5417 5413 5410 5406 5402 5398 5394 5392 5390 5388 5384 5380 5378 5375 5373 5371 5369 5367 5366 5365 5363 5362 5361 5360 5360 5358 5357 5355 5355 5355 5356 5357 5356 5355 5355 5356 5356 5356 5356 5356 5356 5356 5356 5356 5356 5356 5356 5357 5357 5358 5359 5360 5361 5362 5363 5364 5365 5365 5367 5368 5369 5370 5371 5372 5373 5374 5375 5376 5377 5378 5379 5380 5382 5383 5384 5385 5387 5388 5390
5434 5430 5427 5424 5420 5417 5414 5410 5406 5403 5399 5396 5393 5390 5388 5384 5381 5378 5376 5374 5371 5369 5367 5365 5364 5363 5362 5361 5360 5359 5359 5358 5357 5355 5354 5353 5353 5354 5355 5355 5354 5354 5354 5355 5355 5354 5355 5355 5355 5355 5355 5355 5355 5355 5355 5355 5356 5357 5358 5359 5360 5360 5361 5362 5363 5364 5365 5366 5367 5368 5369 5370 5371 5372 5373 5375 5376 5377 5378 5380 5381 5382 5383 5385 5386 5387
5428 5424 5420 5417 5413 5410 5407 5403 5400 5396 5394 5392 5389 5386 5381 5378 5376 5374 5373 5371 5369 5367 5365 5363 5362 5361 5360 5359 5358 5358 5357 5357 5355 5354 5353 5352 5352 5353 5354 5353 5352 5352 5353 5353 5353 5353 5353 5353 5353 5353 5353 5353 5353 5353 5353 5353 5354 5355 5355 5356 5357 5358 5359 5360 5360 5362 5363 5364 5365 5366 5367 5368 5369 5370 5371 5372 5374 5375 5376 5377 5378 5380 5381 5382 5383 5385
5421 5418 5414 5410 5406 5403 5400 5397 5394 5391 5389 5387 5384 5380 5377 5374 5372 5371 5370 5369 5367 5365 5363 5361 5360 5359 5359 5358 5357 5356 5356 5355 5354 5353 5352 5351 5351 5351 5352 5352 5351 5351 5351 5351 5352 5351 5351 5352 5352 5351 5351 5351 5351 5351 5351 5351 5352 5352 5353 5354 5355 5356 5357 5357 5358 5360 5360 5361 5363 5364 5365 5365 5367 5368 5369 5370 5371 5372 5374 5375 5376 5377 5378 5380 5381 5382
5416 5412 5408 5404 5400 5397 5394 5391 5389 5387 5384 5381 5378 5375 5373 5371 5369 5368 5366 5366 5365 5363 5361 5360 5358 5357 5357 5356 5356 5355 5355 5354 5353 5351 5350 5350 5350 5350 5350 5350 5350 5349 5349 5350 5350 5350 5350 5350 5350 5350 5350 5349 5349 5349 5350 5350 5350 5350 5351 5352 5352 5353 5354 5355 5356 5357 5358 5359 5360 5361 5362 5363 5365 5365 5367 5368 5369 5370 5371 5372 5373 5375 5376 5377 5378 5380
5410 5406 5402 5398 5394 5391 5389 5386 5384 5381 5379 5376 5374 5372 5370 5368 5366 5365 5364 5363 5362 5360 5359 5358 5357 5356 5355 5355 5354 5354 5354 5353 5351 5350 5349 5349 5349 5349 5349 5348 5348 5348 5347 5348 5348 5349 5348 5348 5348 5347 5347 5347 5347 5347 5347 5348 5348 5348 5349 5350 5350 5351 5352 5353 5354 5355 5356 5357 5358 5359 5360 5361 5362 5363 5365 5365 5367 5368 5369 5370 5371 5372 5373 5375 5376 5377
5404 5400 5396 5392 5389 5386 5383 5380 5378 5376 5375 5373 5371 5369 5367 5365 5364 5363 5361 5360 5359 5358 5357 5356 5355 5355 5354 5353 5353 5352 5352 5351 5350 5348 5348 5348 5348 5348 5347 5347 5346 5346 5345 5345 5346 5346 5347 5346 5345 5345 5345 5345 5345 5345 5345 5346 5346 5346 5347 5348 5348 5349 5350 5350 5351 5352 5353 5355 5355 5356 5358 5359 5360 5361 5362 5363 5364 5365 5366 5367 5368 5370 5371 5372 5373 5375
5397 5394 5390 5387 5384 5381 5379 5376 5374 5372 5371 5369 5368 5366 5365 5364 5362 5361 5360 5359 5358 5356 5355 5355 5354 5353 5353 5352 5351 5351 5350 5350 5348 5347 5346 5346 5346 5346 5345 5345 5344 5344 5344 5344 5344 5345 5345 5345 5344 5343 5343 5343 5343 5343 5344 5344 5344 5345 5345 5346 5346 5347 5348 5349 5349 5350 5351 5352 5353 5354 5355 5356 5357 5359 5360 5361 5362 5363 5364 5365 5366 5367 5368 5370 5371 5372
5391 5388 5385 5382 5379 5377 5374 5372 5370 5369 5367 5366 5365 5364 5363 5362 5361 5360 5358 5357 5356 5355 5354 5353 5353 5352 5351 5350 5350 5349 5348 5348 5347 5346 5345 5345 5345 5345 5344 5343 5342 5342 5342 5342 5342 5342 5343 5343 5343 5342 5341 5341 5341 5341 5342 5342 5342 5343 5344 5344 5345 5345 5346 5346 5347 5348 5349 5350 5351 5352 5353 5354 5355 5356 5357 5358 5360 5360 5361 5363 5364 5365 5366 5367 5368 5370
5385 5382 5379 5377 5375 5372 5370 5369 5367 5365 5365 5363 5362 5362 5361 5360 5359 5358 5357 5356 5355 5354 5353 5352 5351 5350 5350 5349 5348 5347 5347 5346 5345 5345 5344 5344 5343 5343 5342 5341 5341 5340 5340 5340 5340 5340 5340 5341 5341 5340 5340 5340 5340 5340 5340 5340 5341 5341 5342 5342 5343 5343 5344 5345 5345 5346 5347 5348 5348 5349 5350 5351 5352 5353 5355 5356 5357 5358 5359 5360 5361 5362 5363 5365 5366 5367
5380 5377 5375 5373 5370 5369 5367 5365 5364 5363 5362 5361 5360 5360 5359 5358 5357 5356 5355 5354 5353 5352 5351 5351 5350 5349 5348 5348 5347 5346 5345 5344 5344 5343 5343 5342 5342 5341 5341 5340 5340 5339 5339 5339 5339 5339 5339 5339 5339 5339 5339 5339 5338 5338 5338 5338 5339 5339 5340 5340 5341 5341 5342 5343 5343 5344 5345 5345 5346 5347 5348 5349 5350 5351 5352 5353 5355 5355 5357 5358 5359 5360 5361 5362 5363 5365
5375 5373 5371 5369 5367 5365 5364 5362 5361 5360 5360 5359 5358 5358 5357 5356 5355 5355 5354 5353 5352 5351 5350 5349 5348 5348 5347 5346 5345 5345 5344 5343 5342 5342 5341 5341 5341 5340 5340 5339 5338 5338 5338 5337 5337 5337 5337 5337 5337 5337 5337 5337 5337 5337 5336 5336 5337 5337 5338 5338 5339 5339 5340 5340 5341 5342 5343 5343 5344 5345 5346 5347 5348 5349 5350 5351 5352 5353 5355 5356 5357 5358 5359 5360 5361 5362
5371 5369 5367 5365 5364 5362 5361 5360 5359 5358 5358 5357 5356 5356 5355 5354 5353 5353 5352 5351 5350 5349 5348 5347 5346 5346 5345 5345 5344 5343 5342 5342 5341 5340 5340 5340 5339 5339 5339 5338 5337 5337 5336 5336 5336 5335 5335 5335 5335 5335 5335 5335 5335 5335 5335 5335 5335 5335 5335 5336 5336 5337 5338 5338 5339 5340 5340 5341 5342 5343 5344 5345 5345 5347 5348 5349 5350 5351 5353 5354 5355 5356 5357 5358 5359 5360
5367 5365 5364 5362 5361 5360 5359 5358 5357 5356 5356 5355 5355 5354 5353 5352 5352 5351 5350 5349 5348 5347 5346 5346 5345 5344 5343 5343 5342 5342 5341 5340 5340 5340 5339 5338 5338 5338 5337 5336 5336 5335 5335 5335 5334 5334 5334 5334 5333 5333 5333 5333 5333 5333 5333 5333 5333 5333 5333 5334 5334 5335 5335 5336 5336 5337 5338 5338 5339 5340 5341 5342 5344 5345 5346 5347 5348 5349 5350 5351 5353 5354 5355 5355 5356 5357
5363 5362 5360 5359 5358 5357 5356 5356 5355 5355 5354 5353 5353 5352 5351 5351 5350 5349 5348 5347 5346 5346 5345 5344 5343 5343 5342 5341 5341 5340 5340 5340 5339 5338 5338 5337 5336 5336 5335 5335 5334 5333 5333 5332 5332 5332 5332 5331 5331 5331 5331 5331 5331 5331 5331 5331 5331 5331 5331 5331 5332 5332 5333 5333 5334 5335 5335 5336 5336 5337 5338 5340 5341 5343 5344 5345 5346 5347 5348 5350 5350 5351 5353 5353 5354 5355
5360 5359 5358 5357 5356 5355 5355 5354 5354 5353 5352 5351 5351 5350 5350 5349 5348 5347 5346 5345 5345 5344 5343 5343 5342 5341 5340 5340 5340 5339 5339 5338 5338 5337 5336 5335 5335 5334 5333 5332 5332 5331 5330 5330 5330 5330 5330 5329 5329 5329 5329 5329 5328 5328 5329 5329 5329 5329 5329 5329 5330 5330 5330 5331 5331 5332 5333 5333 5334 5335 5336 5337 5338 5340 5341 5342 5343 5345 5346 5347 5349 5350 5350 5351 5352 5353
5357 5356 5355 5355 5354 5354 5353 5352 5352 5351 5350 5350 5349 5349 5348 5347 5346 5345 5345 5344 5343 5343 5342 5341 5340 5340 5339 5339 5338 5338 5337 5337 5336 5335 5334 5333 5332 5332 5331 5330 5330 5329 5328 5328 5327 5327 5327 5326 5326 5326 5326 5326 5326 5326 5326 5326 5326 5327 5327 5327 5327 5327 5328 5328 5329 5330 5330 5331 5331 5332 5333 5334 5335 5336 5338 5339 5340 5342 5343 5345 5346 5347 5349 5350 5350 5352
5355 5354 5353 5353 5352 5352 5351 5351 5350 5349 5349 5348 5347 5347 5346 5345 5345 5344 5343 5342 5342 5341 5340 5340 5339 5339 5338 5337 5337 5336 5336 5335 5335 5334 5332 5331 5330 5330 5329 5328 5328 5327 5326 5325 5325 5325 5324 5324 5323 5323 5323 5323 5323 5323 5323 5323 5324 5324 5324 5324 5324 5325 5325 5326 5326 5327 5328 5329 5329 5330 5331 5332 5333 5334 5335 5336 5338 5339 5341 5342 5344 5345 5346 5348 5349 5350
5353 5352 5352 5351 5350 5350 5350 5349 5348 5348 5347 5346 5346 5345 5345 5344 5343 5343 5342 5341 5340 5340 5339 5339 5338 5337 5337 5336 5335 5335 5334 5334 5333 5332 5331 5330 5329 5328 5327 5326 5325 5325 5324 5324 5323 5322 5321 5321 5320 5320 5320 5320 5320 5320 5320 5320 5320 5321 5321 5321 5321 5322 5322 5323 5324 5325 5325 5326 5327 5328 5329 5329 5330 5331 5332 5334 5335 5337 5338 5340 5342 5343 5345 5346 5347 5348
5351 5351 5350 5350 5349 5349 5348 5347 5347 5346 5345 5345 5344 5344 5343 5342 5342 5341 5341 5340 5340 5339 5338 5337 5337 5336 5336 5335 5334 5333 5333 5332 5331 5330 5329 5328 5327 5326 5325 5324 5323 5323 5322 5321 5321 5320 5319 5318 5318 5317 5317 5317 5317 5316 5316 5316 5316 5317 5317 5318 5318 5319 5319 5320 5321 5322 5323 5324 5324 5325 5326 5327 5328 5329 5330 5331 5333 5334 5336 5338 5340 5341 5343 5344 5345 5346
5350 5350 5349 5348 5348 5347 5346 5346 5345 5345 5344 5343 5343 5342 5341 5341 5340 5340 5340 5339 5338 5337 5337 5336 5336 5335 5334 5333 5333 5332 5331 5330 5330 5328 5327 5326 5325 5325 5324 5323 5322 5321 5320 5320 5319 5318 5317 5316 5315 5314 5314 5314 5314 5313 5313 5313 5313 5313 5313 5314 5315 5315 5316 5317 5318 5319 5320 5320 5321 5322 5323 5325 5325 5326 5328 5329 5330 5332 5334 5335 5337 5339 5341 5342 5344 5345
5349 5348 5348 5347 5347 5346 5345 5345 5344 5343 5343 5342 5341 5341 5340 5340 5339 5339 5338 5338 5337 5336 5335 5335 5335 5334 5333 5332 5331 5330 5330 5329 5328 5327 5326 5325 5324 5323 5322 5321 5320 5320 5319 5318 5317 5316 5315 5314 5313 5312 5311 5311 5310 5310 5310 5309 5309 5309 5309 5310 5310 5311 5312 5313 5314 5315 5316 5317 5319 5320 5320 5322 5323 5325 5326 5327 5329 5330 5332 5333 5335 5337 5339 5340 5342 5343
5348 5347 5347 5346 5345 5345 5344 5343 5343 5342 5341 5340 5340 5339 5339 5338 5338 5337 5337 5336 5335 5335 5334 5334 5333 5332 5331 5330 5330 5329 5328 5327 5326 5325 5324 5324 5323 5322 5321 5320 5319 5318 5317 5316 5315 5314 5313 5312 5311 5310 5309 5308 5307 5307 5306 5306 5306 5305 5305 5306 5306 5307 5308 5309 5310 5311 5313 5314 5315 5316 5317 5319 5320 5322 5324 5325 5327 5328 5330 5331 5333 5335 5337 5339 5340 5342
5347 5346 5345 5345 5345 5344 5343 5342 5341 5340 5340 5339 5339 5338 5338 5337 5337 5336 5335 5335 5334 5334 5333 5332 5331 5330 5330 5329 5328 5327 5326 5325 5325 5324 5323 5323 5322 5321 5320 5319 5318 5317 5316 5315 5314 5313 5311 5310 5309 5308 5307 5306 5305 5304 5303 5303 5302 5302 5302 5302 5303 5304 5305 5305 5307 5308 5309 5310 5312 5313 5315 5316 5318 5320 5321 5323 5325 5326 5328 5330 5331 5333 5335 5337 5339 5340
5345 5345 5344 5344 5343 5342 5342 5341 5340 5339 5339 5338 5338 5337 5336 5336 5335 5335 5335 5334 5333 5332 5332 5331 5330 5329 5329 5328 5327 5326 5325 5325 5324 5323 5323 5322 5321 5320 5319 5318 5317 5316 5315 5314 5313 5311 5310 5309 5307 5306 5305 5304 5303 5302 5300 5300 5300 5299 5299 5299 5300 5300 5301 5302 5303 5304 5305 5306 5308 5310 5311 5313 5315 5317 5319 5321 5323 5325 5326 5328 5329 5331 5333 5335 5337 5339
5344 5344 5343 5343 5342 5341 5340 5340 5339 5338 5337 5337 5336 5336 5335 5335 5335 5334 5333 5332 5332 5331 5330 5330 5329 5328 5327 5326 5326 5325 5324 5324 5323 5323 5322 5321 5320 5319 5318 5317 5316 5315 5314 5313 5311 5310 5309 5307 5306 5304 5303 5302 5301 5300 5299 5298 5297 5297 5297 5297 5297 5297 5298 5298 5299 5300 5302 5303 5305 5306 5308 5310 5312 5315 5316 5318 5320 5322 5324 5326 5328 5329 5331 5333 5335 5337
5343 5343 5342 5341 5340 5340 5339 5338 5337 5337 5336 5336 5335 5335 5335 5334 5333 5333 5332 5331 5331 5330 5330 5328 5328 5327 5326 5325 5325 5324 5324 5323 5323 5322 5321 5320 5320 5318 5317 5316 5315 5314 5313 5312 5310 5309 5308 5306 5305 5303 5301 5300 5300 5298 5297 5296 5295 5295 5294 5294 5294 5295 5295 5295 5296 5297 5299 5300 5302 5303 5305 5307 5310 5312 5314 5316 5318 5320 5321 5324 5326 5328 5330 5332 5334 5335
5342 5341 5340 5340 5339 5338 5338 5337 5336 5336 5335 5335 5335 5334 5334 5333 5332 5332 5331 5330 5330 5329 5328 5327 5327 5326 5325 5325 5324 5324 5323 5323 5322 5321 5320 5320 5319 5317 5316 5315 5314 5313 5312 5311 5310 5308 5307 5305 5304 5302 5301 5299 5298 5297 5295 5295 5293 5293 5292 5292 5292 5292 5292 5293 5294 5295 5296 5297 5299 5300 5303 5305 5307 5309 5311 5313 5315 5317 5319 5321 5324 5326 5328 5330 5332 5334